User: anonymous   Login
Location: Eitze
(52.9840°N, 9.6894°E)
Time: 21:28:56
(UTC+00:00)
Language:

CZ-4C R/B - Orbit

View from above orbital plane
View from above orbital plane
View from above satellite
View from above satellite

Ground track
Ground track

The orbit is defined by the following mean orbital elements,

1 39211U          26110.50847541 +.00000000 +00000-0 +26251-3 0 00002
2 39211  97.9622  29.3723 0068615 120.1568 240.6497 15.36669802    06
Epoch (UTC): 20 April 2026 12:12:12
Eccentricity: 0.0068615
inclination: 97.9622°
perigee height: 409 km
apogee height: 503 km
right ascension of ascending node: 29.3723°
argument of perigee: 120.1568°
revolutions per day: 15.36669802
mean anomaly at epoch: 240.6497°

The dashed part of the orbit path shows where the satellite is in the earth's shadow,  

DLR